COSMOS 2251 DEB, 34031

Orbit data source: Space-Track

COSMOS 2251 DEB, 34031 is space debris in LEO originally from a launch on Wed, 16 Jun 1993 UTC launched from the Plesetsk Missile And Space Complex (PKMTR). The debris from Iridium 33, an American commercial communications satellite, has been tracked extensively since its accidental collision with the defunct Russian satellite Cosmos 2251 in 2009. This event, occurring at high speed in low Earth orbit (LEO), generated thousands of pieces of space debris, significantly increasing the risk of further collisions. The Iridium 33 debris cloud has impacted space traffic management and orbital debris mitigation strategies, making it a subject of ongoing study in space situational awareness.

Loading next visibility...
Identifier
34031, 1993-036HS
Orbit
LEO
Country
Flag of CISCIS
Related business
Manufacturer
Unknown
Mission
Spacecraft
Bus & Motor
Unknown
Mass
Unknown
Launch date (UTC)
1993-06-16 (33 years ago)
Launch vehicle
Unknown
Launch site
Plesetsk Missile And Space Complex (PKMTR)
Object type
Payload
Rocket body
Debris
Shape & HBR
Unknown shape, 0.1 m
Radar Cross Section
Medium (>0.1 m² and <1 m²)

Expand to show TLE details & history
Last TLE update: 21 hours ago

TLE from 21 hours ago
0 COSMOS 2251 DEB
1 34031U 93036HS  26206.58476282  .00003576  00000-0  72027-3 0  9992
2 34031  74.0124  65.4397 0022930 130.0183 258.6090 14.61747045918497
Epoch: 2026-07-25T14:02Z
TLE epoch observation values (Epoch: 2026-07-25T14:02:03.507Z)
Latitude
27.2261°
Longitude
-79.93883°
Altitude
693.813 km
Speed
7.51 km/s
True Right ascension
04h 55m 28s
True Declination
27° 05' 07"
Sunlit
Object was in daylight at epoch
Visualization orbit readout
Latitude
Unknown
Longitude
Unknown
Altitude
Unknown
Speed
Unknown
Apparent Right ascension
Unknown
Apparent Declination
Unknown
Sunlit
N/A
Visualization observer readout
Local Sidereal Time
00:11:11
Azimuth
Unknown
Elevation
Unknown
Doppler factor
Unknown
Orbital elements
Apogee altitude
701.332 km
Perigee altitude
668.94 km
Semi-major axis
7,063.273 km
Eccentricity
0.00229
Inclination
74.0124°
RAAN
65.4397°
Arg. of periapsis
130.0183°
True anomaly
258.35156°
Mean anomaly
258.609°
Eccentric anomaly
258.48027°
Mean motion
3.65624 °/min
Orbital period
98.46 mins
BSTAR
0.00072027

Documentation

Showing up to 5 results
|